This is the latest recevied weather packets stored in our database for station/object KD5UMO-1. If no packets are shown the sender has not sent any weather packets the latest 10 day(s).
| Time | Temp. | Humidity | Pressure | Rain* | Wind** | Luminosity | Snow |
|---|---|---|---|---|---|---|---|
| 1778100490 | 16.11° C | 74% | 1014.1 hPa | 0 mm | - | 450 W/m² | - |
| 1778100188 | 15.56° C | 75% | 1014.2 hPa | 0 mm | - | 410 W/m² | - |
| 1778099886 | 16.11° C | 75% | 1014.3 hPa | 0 mm | - | 321 W/m² | - |
| 1778099583 | 15.56° C | 76% | 1014.5 hPa | 0 mm | - | 271 W/m² | - |
| 1778099280 | 15.56° C | 76% | 1014.5 hPa | 0 mm | - | 273 W/m² | - |
| 1778098977 | 15.56° C | 75% | 1014.4 hPa | 0 mm | - | 288 W/m² | - |
| 1778098673 | 15.56° C | 75% | 1014.2 hPa | 0 mm | - | 295 W/m² | - |
| 1778098370 | 15.56° C | 76% | 1014.4 hPa | 0 mm | - | 376 W/m² | - |
| 1778098067 | 16.11° C | 76% | 1014.6 hPa | 0 mm | - | 323 W/m² | - |
| 1778097763 | 15.56° C | 76% | 1014.4 hPa | 0 mm | - | 354 W/m² | - |
| 1778097460 | 15.56° C | 77% | 1014.5 hPa | 0 mm | - | 310 W/m² | - |
| 1778097156 | 15° C | 77% | 1014.8 hPa | 0 mm | - | 318 W/m² | - |
| 1778096854 | 15° C | 79% | 1015 hPa | 0 mm | - | 334 W/m² | - |
| 1778096550 | 14.44° C | 79% | 1014.9 hPa | 0 mm | - | 176 W/m² | - |
| 1778096248 | 14.44° C | 80% | 1015 hPa | 0 mm | - | 172 W/m² | - |
| 1778095944 | 14.44° C | 80% | 1015 hPa | 0 mm | - | 170 W/m² | - |
| 1778095641 | 14.44° C | 80% | 1014.9 hPa | 0 mm | - | 169 W/m² | - |
| 1778095338 | 14.44° C | 80% | 1015 hPa | 0 mm | - | 187 W/m² | - |
| 1778095029 | 13.89° C | 80% | 1014.9 hPa | 0 mm | - | 193 W/m² | - |
| 1778094725 | 13.89° C | 81% | 1015.1 hPa | 0 mm | - | 160 W/m² | - |
| 1778094423 | 13.89° C | 81% | 1015.4 hPa | 0 mm | - | 125 W/m² | - |
| 1778094119 | 13.89° C | 81% | 1015.2 hPa | 0 mm | - | 101 W/m² | - |
| 1778093816 | 14.44° C | 81% | 1015.1 hPa | 0 mm | - | 159 W/m² | - |
| 1778093512 | 13.89° C | 80% | 1014.9 hPa | 0 mm | - | 256 W/m² | - |
| 1778093204 | 13.89° C | 82% | 1014.5 hPa | 0 mm | - | 303 W/m² | - |
* Rain latest hour (hover to see other rain measurements)
** Current wind speed in m/s (hover to see current wind gust speed)